Location: Domont
(49.0278°N, 2.3264°E)
Time: 03:37:37
(UTC+00:00)

Orbus 7S? - Pass Details

Date: 01 June 2022
Orbit: 340 x 6374 km, 56.9° (Epoch: 04 July)

Event Time Altitude Azimuth Distance (km) Brightness Sun altitude
Rises 03:01:40 0° 275° (W) 6,234 8.3 -7.0°
Reaches altitude 10° 03:04:44 10° 278° (W) 5,748 8.1 -6.6°
Maximum altitude 03:26:39 73° 5° (N) 5,342 8.4 -4.0°
Drops below altitude 10° 04:09:18 10° 95° (E) 9,720 10.6 1.6°
Sets 04:16:43 0° 99° (E) 10,374 10.7 2.7°
